Home   Weather   Olympia   Past weeks

Flag for USA Past Weather in Olympia, Washington, USA — Yesterday and Last 2 Weeks

Now
55 °F

Partly sunny.


Feels Like: 52 °F
Forecast: 39 / 54 °F
Wind: 13 mph from West

Location: Olympia Airport

Current Time: Apr 30, 2017 at 7:18:17 pm

Latest Report: Apr 30, 2017 at 5:54 pm


Visibility: 10 mi

Pressure: 30.33 "Hg

Humidity: 55%

Dew Point: 39 °F

Location of OlympiaLocation

Past Weather in Olympia — Graph

°F

Olympia Temperature Yesterday

Maximum temperature yesterday: 59 °F (at 3:54 pm)
Minimum temperature yesterday: 35 °F (at 4:54 am)
Average temperature yesterday: 46 °F

High & Low Weather Summary for the Past Weeks

 TemperatureHumidityPressure
High65 °F (Apr 21, 3:54 pm)100% (Apr 16, 6:54 am)30.43 "Hg (Apr 16, 6:54 am)
Low33 °F (Apr 16, 6:54 am)34% (Apr 16, 4:54 pm)29.72 "Hg (Apr 24, 6:54 am)
Average49 °F83%30.03 "Hg
* Reported Apr 15 4:54 pm — Apr 30 4:54 pm, Olympia, Weather by CustomWeather, © 2017

Note: Actual official high and low records may vary slightly from our data, if they occured in-between our weather recording intervals... More about our weather records

Advertising

Olympia Weather History for the Previous 24 Hours

Scroll right to see more
 ConditionsComfort  
Time TempWeatherWind HumidityBarometerVisibility
4:54 pm
Sun, Apr 30
55 °FBroken clouds.10 mph55%30.32 "Hg10 mi
3:54 pm55 °FBroken clouds.15 mph57%30.32 "Hg10 mi
2:54 pm56 °FBroken clouds.14 mph60%30.32 "Hg10 mi
1:54 pm52 °FLight rain. Broken clouds.15 mph69%30.32 "Hg10 mi
12:54 pm53 °FMore clouds than sun.8 mph66%30.31 "Hg10 mi
11:54 am54 °FPartly sunny.13 mph64%30.31 "Hg9 mi
10:54 am54 °FScattered clouds.16 mph59%30.28 "Hg10 mi
9:54 am51 °FScattered clouds.14 mph63%30.27 "Hg10 mi
8:54 am50 °FScattered clouds.12 mph71%30.25 "Hg10 mi
7:54 am48 °FPassing clouds.6 mph80%30.24 "Hg10 mi
6:54 am45 °FPassing clouds.6 mph93%30.24 "Hg10 mi
6:05 am45 °FBroken clouds.7 mph97%30.21 "Hg10 mi
5:16 am46 °FOvercast.10 mph96%30.20 "Hg10 mi
4:54 am46 °FMostly cloudy.9 mph96%30.20 "Hg10 mi
3:54 am47 °FPassing clouds.7 mph97%30.19 "Hg10 mi
2:54 am48 °FPassing clouds.8 mph96%30.17 "Hg10 mi
1:54 am49 °FMostly cloudy.10 mph100%30.15 "Hg10 mi
1:44 am49 °FFog.8 mph100%30.14 "Hg5 mi
1:17 am49 °FFog.8 mph100%30.15 "Hg3 mi
1:08 am49 °FFog.8 mph100%30.14 "Hg2 mi
12:37 am49 °FLight rain. Fog.9 mph100%30.13 "Hg2 mi
12:12 am49 °FLight rain. Fog.9 mph100%30.13 "Hg3 mi
12:02 am49 °FLight rain. Fog.8 mph100%30.13 "Hg2 mi
10:54 pm
Sat, Apr 29
48 °FLight rain. Fog.9 mph100%30.13 "Hg3 mi
10:30 pm48 °FLight rain. Fog.8 mph100%30.13 "Hg4 mi
10:00 pm48 °FLight rain. Fog.7 mph100%30.13 "Hg3 mi
9:35 pm48 °FLight rain. Fog.9 mph100%30.13 "Hg3 mi
8:54 pm48 °FLight rain. Fog.No wind100%30.14 "Hg4 mi
8:40 pm48 °FLight rain. Fog.No wind100%30.14 "Hg4 mi
8:17 pm48 °FRain. Fog.No wind100%30.14 "Hg1 mi
8:08 pm48 °FRain. Fog.6 mph96%30.15 "Hg1 mi
8:01 pm48 °FRain. Fog.5 mph100%30.14 "Hg2 mi
Weather by CustomWeather, © 2017

See weather overviewHow to use our weather pages